This is the latest recevied weather packets stored in our database for station/object DF2AP-13. If no packets are shown the sender has not sent any weather packets the latest 10 day(s).
| Time | Temp. | Humidity | Pressure | Rain* | Wind** | Luminosity | Snow |
|---|---|---|---|---|---|---|---|
| 1777672527 | 11.67° C | 66% | 1026.7 hPa | - | - | - | - |
| 1777671927 | 11.11° C | 67% | 1026.8 hPa | - | - | - | - |
| 1777671327 | 11.11° C | 67% | 1026.8 hPa | - | - | - | - |
| 1777670727 | 11.11° C | 67% | 1026.9 hPa | - | - | - | - |
| 1777670127 | 11.67° C | 66% | 1026.8 hPa | - | - | - | - |
| 1777669527 | 11.67° C | 65% | 1026.9 hPa | - | - | - | - |
| 1777668927 | 12.22° C | 63% | 1026.9 hPa | - | - | - | - |
| 1777668327 | 12.22° C | 63% | 1026.8 hPa | - | - | - | - |
| 1777667727 | 12.22° C | 63% | 1026.9 hPa | - | - | - | - |
| 1777667127 | 12.22° C | 61% | 1026.7 hPa | - | - | - | - |
| 1777666527 | 12.78° C | 60% | 1026.7 hPa | - | - | - | - |
| 1777665927 | 13.33° C | 59% | 1026.7 hPa | - | - | - | - |
| 1777665327 | 13.33° C | 58% | 1026.6 hPa | - | - | - | - |
| 1777664727 | 13.89° C | 56% | 1026.7 hPa | - | - | - | - |
| 1777664127 | 14.44° C | 54% | 1026.5 hPa | - | - | - | - |
| 1777663527 | 15° C | 54% | 1026.5 hPa | - | - | - | - |
| 1777662927 | 15° C | 52% | 1026.4 hPa | - | - | - | - |
| 1777662327 | 15.56° C | 51% | 1026.2 hPa | - | - | - | - |
| 1777661732 | 15.56° C | 50% | 1026.2 hPa | - | - | - | - |
| 1777661127 | 16.11° C | 49% | 1026.2 hPa | - | - | - | - |
| 1777660527 | 16.67° C | 47% | 1025.8 hPa | - | - | - | - |
| 1777659927 | 17.22° C | 45% | 1025.8 hPa | - | - | - | - |
| 1777659327 | 17.78° C | 44% | 1025.8 hPa | - | - | - | - |
| 1777658727 | 18.89° C | 42% | 1025.7 hPa | - | - | - | - |
| 1777658127 | 20° C | 38% | 1025.5 hPa | - | - | - | - |
* Rain since midnight (hover to see other rain measurements)
** Current wind speed in m/s (hover to see current wind gust speed)